Regional Weather Roundup
Issued by NWS

Home | Current Version | Previous Version | Text Only | Print | Product List | Glossary Off
Versions: 1 2 3 4 5 6 7 8 9 10 11 12 13 14 15 16 17 18 19 20 21 22 23 24 25 26 27

000
ASUS43 KDMX 210107
RWRIA

WEATHER ROUNDUP FOR IOWA
NATIONAL WEATHER SERVICE DES MOINES IA
800 PM CDT SUN APR 20 2014

NOTE: "FAIR" INDICATES FEW OR NO CLOUDS BELOW 12,000 FEET WITH NO
SIGNIFICANT WEATHER AND/OR OBSTRUCTIONS TO VISIBILITY.

* - THESE STATIONS ARE NOT NWS STATIONS...THUS NOT UNDER NWS
QUALITY CONTROL.  THEY ALSO DO NOT REPORT WEATHER SUCH
AS PRECIPITATION OR FOG.

IAZ001>003-012>014-020>022-031>034-043>046-210200-
   NORTHWEST IOWA

CITY           SKY/WX    TMP DP  RH WIND       PRES   REMARKS
CARROLL *      MOCLDY    75  50  41 SW23G32   29.90R
CHEROKEE *     LGT RAIN  72  52  49 SW6       29.88R
DENISON *      CLOUDY    68  55  64 SW16G28   29.93R
LE MARS *      LGT RAIN  68  57  68 VRB6      29.88R
ORANGE CITY *  LGT RAIN  70  55  60 S13       29.87F
SHELDON *      PTCLDY    70  54  56 S16       29.87R
SIOUX CITY     CLOUDY    67  60  78 SW6       29.87S
SPENCER        TSTM      67  59  75 W15       29.90R
STORM LAKE *   CLEAR     72  52  49 W7        29.89R
$$

IAZ055>058-069>071-079>083-090>094-210200-
   SOUTHWEST IOWA

CITY           SKY/WX    TMP DP  RH WIND       PRES   REMARKS
ATLANTIC *     LGT RAIN  64  57  77 SW21G28   29.93S
AUDUBON *      CLEAR     66  50  55 SW14G23   29.95R
CLARINDA *     CLOUDY    68  57  68 NW15      29.99R
COUNCIL BLFS * DRIZZLE   63  61  94 SW8       29.95S
CRESTON *      CLEAR     70  54  56 S15G21    29.96R
HARLAN  *      CLOUDY    63  57  82 SW15      29.98R
LAMONI         CLOUDY    71  52  50 S8        29.96F
RED OAK *      LGT RAIN  63  59  88 CALM      29.98R
SHENANDOAH *   HVY RAIN  63  61  94 NW9G16    29.97F
$$

IAZ047>049-059>061-072>074-084-210200-
   CENTRAL IOWA

CITY           SKY/WX    TMP DP  RH WIND       PRES   REMARKS
AMES           MOCLDY    73  53  49 S13       29.90S
ANKENY *       CLEAR     73  52  46 S12       29.92S
CHARITON *     CLEAR     72  50  46 S14       29.96S
DES MOINES     MOCLDY    76  51  41 S16       29.92F
GRINNELL*      MOCLDY    72  46  40 S9        29.95S
KNOXVILLE *    PTCLDY    73  48  40 S13G18    29.95R
MARSHALLTOWN   MOCLDY    73  52  47 S13       29.91F
NEWTON *       CLEAR     70  48  46 S8        29.94S
PELLA *        MOCLDY    72  48  43 S9        29.95F
PERRY *          N/A     75  48  38 S16       29.90S
$$

IAZ004>006-015-016-023>025-035-036-210200-
   NORTH CENTRAL IOWA

CITY           SKY/WX    TMP DP  RH WIND       PRES   REMARKS
ALGONA *       CLEAR     66  59  77 CALM      29.88F
CLARION *      CLOUDY    64  59  82 E14       29.90S
ESTHERVILLE    MOCLDY    70  59  68 E12       29.89R
FORT DODGE *   CLOUDY    68  59  73 NE13      29.89R
MASON CITY     LGT RAIN  60  57  89 W5        29.93F
FOREST CITY *  LGT RAIN  61  55  82 NE5       29.89F
IOWA FALLS *     N/A     70  54  56 S12       29.90S
$$

IAZ007>011-017>019-026>030-037>042-050>054-066-210200-
   NORTHEAST IOWA

CITY           SKY/WX    TMP DP  RH WIND       PRES   REMARKS
CEDAR RAPIDS   MOCLDY    72  47  40 S9        29.95F
CHARLES CITY * MOCLDY    63  57  82 NE12      29.91F
CLINTON *      PTCLDY    70  45  40 S7        30.03F
DECORAH *      CLOUDY    59  59 100 NE5       29.94R FOG
DUBUQUE        MOCLDY    67  47  48 S13       29.97F
MONTICELLO *   PTCLDY    70  48  46 S7        29.96S
OELWEIN *      PTCLDY   N/A N/A N/A S10       29.94R
WATERLOO       MOCLDY    73  51  46 MISG      29.90F
$$

IAZ064-065-067-068-078-210200-
   EAST CENTRAL IOWA

CITY           SKY/WX    TMP DP  RH WIND       PRES   REMARKS
DAVENPORT      PTCLDY    72  46  39 S9        29.99F
IOWA CITY      MOCLDY    70  49  47 S7        29.98F
MT. PLEASANT * CLOUDY    72  46  40 S7        29.99S
MUSCATINE *    CLEAR     72  48  43 S6        29.98S
QUAD CITIES    MOCLDY    73  46  38 S7        29.98F
$$

IAZ062-063-075>077-085>089-095>099-210200-
   SOUTHEAST IOWA

CITY           SKY/WX    TMP DP  RH WIND       PRES   REMARKS
BURLINGTON     CLOUDY    73  47  39 S7        29.99F
FAIRFIELD *    CLEAR     72  48  43 S7        29.98S
FORT MADISON * CLEAR     72  48  43 S3        30.01S
KEOKUK *       CLEAR     73  48  40 S6        29.99S
OSKALOOSA *      N/A     72  50  46 S10       29.97S
CENTERVILLE *  CLEAR     68  50  52 S7        30.00S
OTTUMWA        CLOUDY    72  47  40 S8        29.96F
WASHINGTON *   CLEAR     70  48  46 S7        29.98S
$$

ABBREVIATIONS USED IN REMARKS
   TC - TEMPERATURES IN CELSIUS
  WCI - WIND CHILL INDEX
   HX - HEAT INDEX
  VSB - VISIBILITY
$$




USA.gov is the U.S. government's official web portal to all federal, state and local government web resources and services.